We Are Flying!
The weather is looking good today! Planes are flying and engines are turning. Please call to confirm your arrival with our operations team!

We recommend that you phone ahead before traveling
John Monaghan - Flight Operations: 0862486210
EIDW 170000Z 24009KT 9999 SCT022 BKN070 BKN200 06/04 Q1022 NOSIG